DECAYED

STARLINK-1956, 47557 (Decayed)

Orbit data source: Space-Track

STARLINK-1956, 47557 was a payload satellite owned by SpaceX/Seattle (US) in LEO that was launched on Thu, 04 Feb 2021 UTC via an FALCON 9 launch vehicle from the Air Force Eastern Test Range (AFETR). Payload-class satellites include a variety of spacecraft equipped with specific instruments for various scientific and technological missions. These include communications satellites like Starlink; space stations such as the ISS; scientific satellites like the Hubble; Earth observation satellites from companies like Planet Labs, Umbra, and HawkEye 360; GPS; miniature CubeSats for education and research; and military/defense satellites.

Not visible in the next 10 days
Identifier
47557, 2021-009K
Orbit
Decayed
Country
Flag of USUS
Related business
Manufacturer
SpaceX/Seattle
Mission
Decayed Commercial Communications
Bus & Motor
STARLINK, Unknown motor
Mass
260 kg wet, ~248 kg dry
Launch date (UTC)
2021-02-04 (5 years ago)
Launch vehicle
FALCON 9
Launch site
Air Force Eastern Test Range (AFETR)
Object type
Payload
Rocket body
Debris
Shape & HBR
Box + 1 Pan, 10.1 m
Radar Cross Section
13.562 m², Large (>1 m²)

Expand to show TLE details & history
Last TLE update: 1 year ago

TLE from 1 year ago
0 STARLINK-1956
1 47557U 21009K   25031.45055454  .03301355  11970-4  10364-2 0  9991
2 47557  53.0338  10.3208 0005954 104.2238  40.5535 16.25720337221002
Epoch: 2025-01-31T10:48Z
TLE epoch observation values (Epoch: 2025-01-31T10:48:47.912Z)
Latitude
27.49245°
Longitude
-125.71054°
Altitude
202.401 km
Speed
7.791 km/s
True Right ascension
11h 09m 36s
True Declination
27° 20' 24"
Sunlit
Object was in full shadow at epoch
Visualization orbit readout
Latitude
Unknown
Longitude
Unknown
Altitude
Unknown
Speed
Unknown
Apparent Right ascension
Unknown
Apparent Declination
Unknown
Sunlit
N/A
Visualization observer readout
Local Sidereal Time
21:28:28
Azimuth
Unknown
Elevation
Unknown
Doppler factor
Unknown
Orbital elements
Apogee altitude
208.273 km
Perigee altitude
200.435 km
Semi-major axis
6,582.491 km
Eccentricity
0.0006
Inclination
53.0338°
RAAN
10.3208°
Arg. of periapsis
104.2238°
True anomaly
40.59788°
Mean anomaly
40.5535°
Eccentric anomaly
40.57569°
Mean motion
4.06404 °/min
Orbital period
88.58 mins
BSTAR
0.0010364
Loading maneuver chart data...
Computing Atmospheric mass density...

Documentation

Showing up to 5 results
|